Regional Weather Roundup
Issued by NWS Burlington, VT

Current Version | Previous Version | Text Only | Print | Product List | Glossary On
Versions: 1 2 3 4 5 6 7 8 9 10 11 12 13 14 15 16 17 18 19 20 21 22 23 24 25 26 27 28 29 30 31 32 33 34 35 36 37 38 39 40 41 42 43 44 45 46 47 48 49 50
838
ASUS41 KBTV 221110
RWRBTV
VERMONT REGIONAL WEATHER ROUNDUP
NATIONAL WEATHER SERVICE BURLINGTON VT
700 AM EDT FRI MAY 22 2015

NOTE: "FAIR" INDICATES FEW OR NO CLOUDS BELOW 12,000 FEET WITH NO
SIGNIFICANT WEATHER AND/OR OBSTRUCTIONS TO VISIBILITY.

* THESE REPORTS ARE NOT UNDER NWS QUALITY CONTROL AND/OR DO NOT
  REPORT WEATHER SUCH AS PRECIPITATION AND FOG.

VTZ001>019-221200-
_____VERMONT_____


CITY           SKY/WX    TMP DP  RH WIND       PRES   REMARKS
BURLINGTON     PTSUNNY   53  38  56 W5        29.81R
MONTPELIER     CLOUDY    50  38  63 CALM      29.83S
MORRISVILLE    CLOUDY    48  40  73 N3        29.81R
ST. JOHNSBURY*   N/A     47  43  86 MISG      29.78F
LYNDONVILLE*   CLOUDY    47  38  71 CALM      29.81S
MIDDLEBURY*    CLOUDY    54  36  50 S6        29.81R
RUTLAND*       CLOUDY    46  36  66 S3        29.83S
SPRINGFIELD    SUNNY     49  43  80 CALM      29.83S
HIGHGATE*      CLOUDY    53  38  56 W6        29.80R
NEWPORT*         N/A     48  37  66 SW5       29.79R
BENNINGTON     MOSUNNY   50  44  80 CALM      29.85R

_____LAKE CHAMPLAIN_____


CITY           SKY/WX    TMP DP  RH WIND       PRES   REMARKS

$$

NYZ007-026>031-035-052-083-221200-
_____NORTHERN NEW YORK_____


CITY           SKY/WX    TMP DP  RH WIND       PRES   REMARKS
PLATTSBURGH    CLOUDY    53  36  52 W5        29.81R
SARANAC LAKE   CLOUDY    45  36  70 W6        29.81R
MASSENA        MOSUNNY   48  37  65 NW9       29.88R
OGDENSBURG*    MOSUNNY   46  37  71 NW9       29.90R
POTSDAM*       CLOUDY    43  36  75 NW8       29.88R
WATERTOWN      SUNNY     48  36  63 N7        29.91R
FT DRUM        CLOUDY    47  39  73 N6        29.88R
ALBANY         MOSUNNY   53  39  59 S3        29.87R
GLENS FALLS    CLOUDY    50  43  77 SW5       29.84R

$$
NHZ002-005-011-221200-
_____NEW HAMPSHIRE_____


CITY           SKY/WX    TMP DP  RH WIND       PRES   REMARKS
LEBANON        SUNNY     48  42  80 CALM      29.81S
KEENE          PTSUNNY   48  45  87 CALM      29.84R
MT WASHINGTON  PTSUNNY   28  27  93 W25         N/A  WCI  14
PLYMOUTH         N/A     48  46  92 CALM      29.81R
WHITEFIELD     MOSUNNY   48  41  76 CALM      29.80R

$$

_____REGIONAL QUEBEC LOCATIONS_____


CITY           SKY/WX    TMP DP  RH WIND       PRES   REMARKS
MONTREAL       CLOUDY    48  41  76 N14       29.82R
QUEBEC CITY    LGT RAIN  46  43  87 NW6       29.78R
SHERBROOKE     CLOUDY    46  41  81 W5        29.77R

_____REGIONAL ONTARIO LOCATIONS_____


CITY           SKY/WX    TMP DP  RH WIND       PRES   REMARKS
OTTAWA         MOSUNNY   45  34  65 NW12G21   29.90R

______KEY______
VSB  - VISIBILITY IN MILES
WCI  - WIND CHILL INDEX
HX   - HEAT INDEX
$$
NNNN



USA.gov is the U.S. government's official web portal to all federal, state and local government web resources and services.